Warning: Javascript must be enabled to use all the features on this page!


Page Loading - Please Wait...

Click to hideNews Bulletins

Peak Streamflow for the Nation

USGS 01396800 Spruce Run at Clinton NJ

Hunterdon County, New Jersey
Hydrologic Unit Code 02030105
Latitude  40°38'24", Longitude  74°54'56" NAD83
Drainage area 41.3  square miles
Gage datum 193.50 feet above NGVD29
Output formats
Table
Graph
Tab-separated file
peakfq (watstore) format
Reselect output format
Water
Year
Date Gage
Height
(feet)
Stream-
flow
(cfs)
1960 1960-09-12 6.803 2,220
1961 1961-02-26 5.423 1,510
1962 1962-03-12 5.413 1,830
1963 1963-03-06 4.751 1,020
1964 1964-09-09 1.82 80.05
1965 1965-09-30 2.43 4285
1966 1966-07-19 2.09 1905
1967 1967-08-03 3.60 1,6805
1968 1968-05-29 3.43 1,4805
1969 1969-03-25 2.33 3555
1970 1970-04-02 5.17 4,0805
1971 1971-02-13 3.06 1,1805
1972 1972-06-22 3.95 2,1505
1973 1973-06-29 3.19 1,2105
1974 1973-12-21 3.86 2,0205
1975 1975-07-13 3.81 1,9605
1976 1976-01-27 3.07 1,1705
1977 1977-04-05 2.71 6805
1978 1978-01-25 3.25 1,2705
1979 1979-01-24   1,9705
1980 1980-03-21 3.06 1,1605
1981 1981-02-20 2.022 1555
1982 1982-02-03 3.05 1,1505
1983 1983-04-16 4.19 2,4905
1984 1984-07-07 4.67 3,2205
1985 1985-07-25 2.12 2105
1986 1986-04-17 2.69 6885
1987 1987-04-04 3.45 1,5005
1988 1987-11-30 2.93 9825
1989 1989-06-24 2.86 8905
1990 1990-08-07 2.78 7905
1991 1990-12-04 2.68 6745
1992 1992-02-11 1.97 1275
1993 1993-03-24 2.70 6975
1994 1994-03-29 2.65 6425
1995 1995-08-20 2.22 2515
1996 1996-07-13 3.09 1,2105
1997 1996-12-02 3.66 1,7605
1998 1998-04-10 2.88 9155
1999 1999-06-29 2.17 2205
2000 2000-04-21 2.46 4485
2001 2001-03-30 2.46 4485
2002 2002-09-14 2.18 2265
2003 2003-08-05 2.90 9425
2004 2003-12-11 3.78 1,9205
2005 2005-04-02 4.16 2,4505
2006 2006-06-28 3.80 1,9405
2007 2007-04-16 5.01 3,7905
2008 2008-03-08 3.36 1,4005
2009 2009-08-02 3.98 2,1905
2010 2010-03-14 3.79 1,9305
2011 2011-09-08 5.13 4,0005
2012 2012-06-02 2.54 5265
2013 2013-06-08 2.86 8625
2014 2014-05-01 3.16 1,1805
2015 2015-08-18 2.25 2725
2016 2016-06-27 2.28 2895
2017 2017-09-26 2.19 2315
2018 2018-08-04 2.67 6515
2019 2018-11-25 3.28 1,3205
?
  Peak Gage-Height Qualification Codes.
?
  Peak Streamflow Qualification Codes.